Weather History for Spokane, WA

Change the Weather History Date:

Thursday, January 17, 2013

  Actual Average Record
Temperature  
Mean Temperature 19 °F 30 °F  
Max Temperature 25 °F 35 °F 51 °F (1919)
Min Temperature 12 °F 25 °F -18 °F (1950)
Degree Days  
Heating Degree Days 46 35  
Month to date heating degree days 706 619  
Since 1 July heating degree days 3131 3453  
Cooling Degree Days 0 0  
Month to date cooling degree days 0 0  
Year to date cooling degree days 0 0  
Moisture  
Dew Point 17 °F    
Average Humidity 90    
Maximum Humidity 96    
Minimum Humidity 84    
Precipitation  
Precipitation T in 0.05 in 0.54 in (1958)
Month to date precipitation 1.05 1.06  
Year to date precipitation 1.05 1.06  
Snow  
Snow T in 0.30 in 3.40 in (1953)
Month to date snowfall 11.8 7.4  
Since 1 July snowfall 35.8 29.5  
Snow Depth 2.00 in    
Sea Level Pressure  
Sea Level Pressure 30.50 in    
Wind  
Wind Speed 2 mph (WSW)    
Max Wind Speed 8 mph    
Max Gust Speed 9 mph    
Visibility 1 miles    
Events Fog    
T = Trace of Precipitation, MM = Missing Value Source: NWS Daily Summary

Daily Weather History Graph

Daily Weather History Graph

Search for Another Location

Airport:

Trip Planner

Search our weather history database for the weather conditions in past years. The results will help you decide how hot, cold, wet, or windy it might be!

Date:

Astronomy

Jan. 17, 2013 Rise Set
Actual Time 7:31 AM PST 4:29 PM PST
Civil Twilight 6:57 AM PST 5:03 PM PST
Nautical Twilight 6:19 AM PST 5:41 PM PST
Astronomical Twilight 5:42 AM PST 6:18 PM PST
Moon 10:09 AM PST (1/17) 11:59 PM PST (1/17)
Length of Visible Light 10h 06m
Length of Day
8h 57m
Waxing Crescent, 39% of the Moon is Illuminated
Jan 17
Waxing Crescent
Jan 18
First Quarter
Jan 26
Full
Feb 3
Last Quarter
Feb 9
New

Hourly Weather History & Observations

Time (PST) Temp. Windchill Dew Point Humidity Pressure Visibility Wind Dir Wind Speed Gust Speed Precip Events Conditions
12:25 AM 12.2 °F 4.3 °F 10.4 °F 92% 30.48 in 0.1 mi WSW 4.6 mph - N/A Fog Light Freezing Fog
12:53 AM 12.9 °F 6.9 °F 9.0 °F 84% 30.59 in 0.1 mi West 3.5 mph - N/A Fog Light Freezing Fog
1:25 AM 15.8 °F 8.6 °F 12.2 °F 86% 30.49 in 0.1 mi WSW 4.6 mph - N/A Fog Light Freezing Fog
1:53 AM 15.1 °F 7.7 °F 12.0 °F 88% 30.59 in 0.2 mi WSW 4.6 mph - N/A Fog Light Freezing Fog
2:53 AM 17.1 °F - 14.0 °F 88% 30.59 in 0.1 mi Calm Calm - N/A Fog Light Freezing Fog
3:53 AM 17.6 °F - 14.0 °F 86% 30.48 in 0.1 mi Calm Calm - N/A Fog Light Freezing Fog
4:53 AM 19.0 °F - 15.1 °F 85% 30.59 in 0.1 mi Calm Calm - N/A Fog Light Freezing Fog
5:53 AM 19.9 °F - 16.0 °F 85% 30.58 in 0.1 mi Calm Calm - N/A Fog Light Freezing Fog
6:07 AM 19.4 °F - 15.8 °F 86% 30.47 in 0.2 mi Calm Calm - N/A Fog Light Freezing Fog
6:53 AM 19.9 °F - 16.0 °F 85% 30.59 in 0.2 mi Calm Calm - N/A Fog Light Freezing Fog
7:53 AM 19.9 °F - 16.0 °F 85% 30.61 in 0.1 mi Calm Calm - N/A Fog Light Freezing Fog
8:10 AM 19.4 °F 12.8 °F 15.8 °F 86% 30.50 in 0.1 mi North 4.6 mph - N/A Fog Light Freezing Fog
8:53 AM 19.9 °F - 16.0 °F 85% 30.62 in 0.1 mi Calm Calm - 0.00 in Fog Light Freezing Fog
9:53 AM 21.0 °F - 17.1 °F 85% 30.61 in 0.2 mi Calm Calm - N/A Fog Light Freezing Fog
10:53 AM 21.9 °F - 19.0 °F 89% 30.61 in 0.2 mi Calm Calm - N/A Fog Light Freezing Fog
11:53 AM 23.0 °F 18.4 °F 19.9 °F 88% 30.58 in 0.2 mi North 3.5 mph - N/A Fog Light Freezing Fog
12:53 PM 24.1 °F - 21.0 °F 88% 30.54 in 0.2 mi Calm Calm - N/A   Overcast
1:35 PM 24.8 °F 19.1 °F 21.2 °F 86% 30.42 in 1.0 mi North 4.6 mph - N/A   Overcast
1:53 PM 23.0 °F 18.4 °F 21.0 °F 92% 30.52 in 0.5 mi NE 3.5 mph - N/A   Overcast
2:15 PM 24.8 °F 20.5 °F 19.4 °F 80% 30.41 in 0.5 mi ENE 3.5 mph - N/A   Overcast
2:27 PM 23.0 °F 18.4 °F 21.2 °F 93% 30.40 in 0.5 mi ENE 3.5 mph - N/A   Overcast
2:53 PM 23.0 °F 18.4 °F 21.0 °F 92% 30.51 in 0.5 mi East 3.5 mph - N/A   Overcast
3:53 PM 21.9 °F - 19.0 °F 89% 30.50 in 0.2 mi Calm Calm - N/A   Overcast
4:28 PM 21.2 °F 16.4 °F 19.4 °F 93% 30.37 in 1.5 mi SSE 3.5 mph - N/A   Overcast
4:53 PM 21.9 °F - 19.0 °F 89% 30.49 in 1.5 mi Calm Calm - N/A   Overcast
4:57 PM 21.2 °F - 19.4 °F 93% 30.39 in 3.0 mi Calm Calm - N/A   Mostly Cloudy
5:20 PM 21.2 °F - 19.4 °F 93% 30.38 in 3.0 mi Calm Calm - N/A   Scattered Clouds
5:53 PM 21.0 °F - 19.0 °F 92% 30.48 in 4.0 mi Calm Calm - N/A   Overcast
6:20 PM 21.2 °F 16.4 °F 17.6 °F 86% 30.37 in 0.5 mi West 3.5 mph - N/A Fog Light Freezing Fog
6:53 PM 21.0 °F 14.6 °F 18.0 °F 88% 30.46 in 0.5 mi West 4.6 mph - N/A Fog Light Freezing Fog
7:01 PM 19.4 °F - 17.6 °F 93% 30.36 in 0.2 mi Calm Calm - N/A Fog Light Freezing Fog
7:39 PM 19.4 °F - 17.6 °F 93% 30.35 in 3.0 mi Calm Calm - N/A   Mostly Cloudy
7:53 PM 19.0 °F 12.3 °F 16.0 °F 88% 30.45 in 3.0 mi WSW 4.6 mph - N/A   Mostly Cloudy
8:53 PM 18.0 °F - 15.1 °F 88% 30.45 in 7.0 mi Calm Calm - N/A   Overcast
9:40 PM 17.6 °F - 15.8 °F 93% 30.34 in 5.0 mi Calm Calm - N/A   Overcast
9:53 PM 18.0 °F - 16.0 °F 92% 30.44 in 5.0 mi Calm Calm - N/A   Overcast
10:53 PM 18.0 °F 12.7 °F 15.1 °F 88% 30.43 in 6.0 mi South 3.5 mph - N/A   Overcast
11:53 PM 17.1 °F 10.0 °F 14.0 °F 88% 30.43 in 6.0 mi SSW 4.6 mph - N/A   Overcast